Zurück zum Katalog

STARLINK-3749

AktivKommunikationVLEO
NORAD 52313·PAYLOAD·🇺🇸 United States

Gestartet Apr 21, 2022 von Cape Canaveral Space Force Station

Loading…

Nächste Überflüge (nächste 24 Stunden)

TLE

AktuellSource: CelesTrak SupGP

Epoche: Sep 14, 2026, 21:02 UTC

1 52313C 22041BE  26257.87687500 -.00010531  00000+0 -31962-3 0  2578
2 52313  53.1578 308.1040 0001187  81.4657  56.2287 15.33547362    19

Verfolge STARLINK-3749 in Echtzeit mit AllMySat

Download on the App Store